Lapse_Rate
5.4 5.4 5.6 5.6 5.6 5.7 5.7 5.6 5.6 5.6 5.6 5.6 5.5 5.5 5.6 5.4 5.5 5.6 5.7 5.7 5.7 5.4 5.5 5.7 5.9 5.8 5.6 5.9 6.1 6.0 5.1 4.8 5.3 5.9 6.4 7.7 8.1 8.5 8.6 8.7 8.9 9.2 8.9 8.5 8.4
5.4 5.4 5.5 5.5 5.4 5.4 5.4 5.3 5.3 5.4 5.5 5.5 5.4 5.4 5.5 5.2 5.4 5.6 5.4 5.3 5.4 5.5 5.5 5.7 5.7 5.7 4.9 5.7 5.6 5.6 5.4 5.5 6.0 5.9 6.3 7.0 7.8 7.9 8.1 8.3 8.7 9.2 8.6 8.6 8.4
5.5 5.4 5.4 5.4 5.3 5.3 5.3 5.2 5.2 5.3 5.5 5.5 5.5 5.4 5.5 5.4 5.2 5.3 5.5 5.5 5.5 5.5 5.6 5.6 5.8 5.8 5.7 5.3 5.6 5.9 5.2 6.0 6.0 6.6 6.7 6.7 7.0 7.6 7.7 7.5 8.6 9.1 8.8 8.3 8.3
5.4 5.4 5.3 5.1 5.2 5.2 5.3 5.1 5.3 5.4 5.6 5.6 5.6 5.5 5.5 5.5 5.5 5.7 5.7 5.7 5.6 5.8 5.8 5.9 6.2 6.1 5.6 5.7 6.3 5.9 6.2 6.2 6.1 6.6 6.7 6.9 7.3 7.2 7.4 7.2 7.5 8.9 8.5 8.1 8.2
5.5 5.3 5.2 5.0 5.0 5.1 5.2 5.3 5.3 5.4 5.5 5.6 5.5 5.5 5.6 5.4 5.7 5.8 5.7 5.6 5.8 6.0 6.2 6.3 6.3 5.9 6.1 6.3 6.5 6.6 6.7 6.6 6.7 6.8 7.0 7.1 7.3 7.0 7.3 7.2 7.5 7.7 8.0 8.0 7.9
5.5 5.5 5.3 5.1 5.1 5.1 5.2 5.4 5.5 5.5 5.6 5.6 5.6 5.7 5.7 5.8 6.0 6.3 6.1 6.0 6.1 6.2 6.3 6.5 6.5 6.2 6.1 6.5 6.5 6.8 6.9 6.9 7.0 7.0 7.1 7.3 7.3 7.7 7.1 7.3 7.2 7.7 7.8 7.9 7.6
5.3 5.3 5.3 5.1 5.0 5.0 5.2 5.4 5.6 5.6 5.6 5.7 5.8 5.8 6.0 6.0 6.2 6.2 6.0 6.4 6.4 6.4 6.7 6.3 6.3 6.2 6.4 6.5 6.8 7.0 6.8 7.0 7.7 7.8 7.6 7.8 7.5 7.2 7.7 7.6 7.3 7.7 7.8 8.3 8.0
5.0 5.1 5.2 5.1 5.2 5.2 5.4 5.6 5.6 5.7 6.0 6.1 6.2 6.0 6.4 6.4 6.6 6.4 6.4 6.7 6.6 6.7 6.7 6.8 6.6 6.5 6.7 6.8 7.1 6.4 6.9 7.1 7.7 7.9 7.9 8.0 7.6 7.3 7.2 7.9 7.8 7.8 7.6 7.7 8.5
4.6 5.2 5.2 5.2 5.3 5.3 5.5 5.7 5.8 6.0 6.2 6.1 6.1 5.9 6.6 6.7 6.7 6.6 6.7 7.1 6.8 6.9 6.9 6.9 6.8 6.3 6.6 6.7 6.6 6.5 6.9 7.3 7.4 7.8 7.7 8.2 8.2 7.7 7.5 8.3 8.0 7.8 7.7 7.6 7.9
4.4 5.0 5.1 5.2 5.3 5.4 5.6 5.8 5.9 6.1 6.1 6.0 6.2 5.9 6.4 6.7 6.6 6.5 6.9 7.0 6.9 7.2 7.2 6.9 6.1 6.1 6.5 6.9 6.4 6.6 7.0 7.0 7.1 7.6 7.8 8.0 8.2 8.3 8.2 8.6 8.4 8.4 8.0 7.9 8.0
4.6 5.0 5.1 5.2 5.3 5.6 5.7 5.8 5.8 6.1 6.4 6.3 6.3 6.3 6.8 6.5 6.4 6.3 7.1 7.1 6.9 6.7 6.9 6.8 6.4 6.7 6.8 6.7 6.6 6.5 6.5 6.6 6.9 7.2 7.8 7.9 8.1 8.1 8.6 8.8 8.3 8.6 8.1 8.1 8.0
4.6 4.9 5.1 5.3 5.5 5.6 5.7 5.9 6.0 5.9 6.2 6.5 6.4 6.6 6.5 6.4 6.5 6.6 6.9 6.9 7.2 7.2 7.0 6.5 6.1 6.6 6.7 6.8 6.6 6.5 6.4 6.6 6.7 6.8 7.7 7.7 8.0 8.1 8.2 9.0 8.3 7.9 7.8 8.1 8.3
4.6 4.8 5.0 5.3 5.5 5.7 5.7 6.0 6.1 6.1 5.6 6.3 6.5 6.3 6.4 6.6 6.5 6.7 6.5 6.9 6.8 6.7 5.9 5.8 5.9 6.0 6.0 5.8 6.0 6.4 6.4 6.5 6.5 6.2 6.7 7.5 7.6 7.5 7.7 8.2 8.7 8.3 7.8 7.9 7.5
4.4 4.9 5.0 5.3 5.5 5.8 5.9 6.0 6.2 6.2 6.0 5.4 5.8 6.2 6.5 6.7 5.9 6.3 6.1 6.4 6.3 6.0 5.8 5.6 6.1 5.9 6.0 5.8 5.9 5.9 6.2 6.4 6.6 6.3 6.8 7.6 8.1 7.7 7.5 7.8 8.4 8.7 8.6 8.1 7.7
4.4 4.8 5.1 5.4 5.6 5.9 6.0 6.2 6.4 6.4 5.7 5.5 5.5 6.1 6.3 6.3 6.5 6.0 6.1 6.1 6.1 6.1 6.1 5.9 6.0 5.9 5.9 5.8 6.3 6.6 7.2 7.7 7.8 7.7 7.5 7.3 8.4 6.9 7.5 7.6 7.7 8.3 8.6 8.8 9.1
4.6 4.9 5.2 5.3 5.6 5.8 6.0 6.3 6.5 6.7 6.0 6.0 5.8 6.1 6.6 6.1 6.0 6.2 6.3 6.3 6.4 6.4 6.4 6.1 6.1 6.5 6.1 6.8 8.1 8.0 7.8 7.8 8.3 8.1 8.3 7.4 8.1 6.8 7.3 7.4 7.8 8.5 8.5 8.7 9.1
4.6 4.9 5.1 5.3 5.6 5.7 6.0 6.2 6.5 6.2 6.7 6.2 6.2 6.2 6.5 6.4 6.3 6.4 6.3 6.4 6.2 5.8 5.4 5.5 5.7 6.4 7.5 8.2 8.1 7.6 7.5 7.4 7.6 8.1 8.1 8.3 8.5 7.3 8.0 7.9 8.2 8.7 9.0 9.1 9.4
4.6 4.9 5.1 5.2 5.5 5.7 5.9 6.2 6.5 6.8 6.7 6.5 6.8 6.8 6.6 6.5 6.5 6.5 6.3 6.1 6.2 6.1 5.8 5.3 4.8 5.7 7.5 7.7 7.0 6.8 7.2 7.2 7.3 7.6 8.2 9.1 8.8 7.4 8.0 8.0 8.4 9.0 8.9 9.0 9.1
4.7 4.9 5.0 5.2 5.4 5.6 5.8 6.2 6.4 6.6 6.9 7.1 7.0 6.6 7.1 6.8 6.6 6.4 6.2 6.2 6.1 6.2 6.1 5.8 5.7 6.8 7.7 7.4 6.9 6.4 6.9 7.0 7.4 7.5 8.2 9.0 8.6 8.4 8.8 8.3 8.4 8.7 8.6 8.8 8.3
4.6 4.9 5.1 5.2 5.3 5.5 5.5 6.2 6.0 6.5 6.9 6.8 6.7 6.6 6.8 6.7 6.4 6.3 6.2 6.3 6.2 6.3 6.4 6.2 5.7 6.9 7.3 7.3 7.4 6.5 6.9 7.3 7.4 7.7 8.0 8.5 8.2 7.9 8.3 8.5 9.1 9.2 8.4 8.2 8.6
4.8 4.9 4.8 5.0 5.2 5.4 5.8 5.8 5.7 6.5 6.6 6.5 6.2 6.3 6.5 6.4 6.4 6.2 6.4 6.5 6.5 6.4 6.4 6.6 6.5 6.5 6.7 7.1 7.0 6.9 6.6 6.5 7.0 7.9 8.0 8.0 7.7 8.3 8.6 8.6 8.7 9.0 8.6 8.1 8.1
4.7 4.8 4.9 5.1 5.2 5.6 5.7 5.1 6.0 5.8 6.4 6.2 6.1 6.1 5.9 6.2 6.2 6.2 6.5 6.6 6.6 6.6 6.2 6.6 6.5 6.2 6.5 7.4 7.2 6.8 6.5 6.3 6.9 7.1 7.4 8.8 7.4 8.6 8.6 8.2 8.8 9.2 8.5 8.1 7.8
4.7 4.9 5.0 5.3 5.5 5.7 5.3 5.5 6.0 5.5 5.8 5.6 5.7 5.9 6.1 6.1 6.0 6.3 6.4 6.6 6.8 6.6 6.3 6.7 6.6 6.1 6.6 7.2 7.1 6.6 6.8 6.9 7.1 7.6 7.9 7.7 7.8 8.5 8.5 8.5 7.9 8.2 7.8 7.6 7.4
4.4 4.7 5.4 5.4 5.6 5.7 5.5 5.8 6.0 5.9 5.7 5.6 5.7 5.9 6.0 5.9 6.2 6.2 6.3 6.4 6.6 6.7 6.9 7.1 6.8 6.6 6.2 6.2 6.2 5.9 6.7 7.2 7.3 7.2 8.1 7.9 8.1 8.0 8.3 7.7 7.1 7.0 6.9 7.4 7.2
4.8 5.1 4.8 5.5 5.6 5.8 5.7 5.9 5.8 6.0 5.6 5.6 5.6 5.9 5.9 6.0 6.1 6.2 6.2 6.3 6.7 6.6 7.2 7.2 6.8 7.0 7.1 6.7 6.4 6.5 7.2 6.9 6.7 7.5 7.6 7.8 8.1 7.3 7.2 7.2 6.9 6.2 5.9 5.4 6.1
4.9 4.7 5.5 5.7 5.9 6.0 6.0 6.1 5.8 5.7 5.9 5.8 5.8 5.8 6.0 6.1 6.0 5.9 6.0 6.4 6.4 7.2 7.3 7.7 6.8 6.8 7.3 7.2 7.0 6.7 6.8 6.6 6.6 7.0 7.1 7.2 8.1 7.1 6.7 7.4 7.6 7.1 5.9 5.6 5.7
5.1 5.4 5.9 5.7 5.5 6.0 6.2 5.9 5.7 5.8 5.9 6.0 5.8 5.6 5.9 5.8 5.8 6.1 6.5 6.6 6.5 7.0 8.0 7.6 7.4 7.3 6.8 7.4 7.2 6.7 6.4 6.2 6.5 6.2 6.6 6.6 6.4 6.8 6.7 7.1 7.8 7.4 6.7 5.9 5.3
Wind_Speed
6 8 9 11 13 15 17 18 18 19 20 21 22 20 20 22 24 2 4 4 6 17 13 7 8 8 6 4 4 3 5 13 8 13 16 19 18 12 8 2 1 3 4 9 9
6 8 10 12 14 16 18 20 21 22 22 22 22 20 17 19 4 5 4 9 13 11 7 8 11 8 4 6 4 4 6 4 7 13 16 20 13 15 14 8 6 2 9 12 11
7 7 11 12 14 15 18 21 23 24 24 23 21 21 16 12 2 2 4 9 12 9 5 9 10 8 7 5 6 9 14 10 16 18 20 22 21 13 10 10 5 7 4 10 8
7 10 12 14 16 17 19 21 23 24 25 22 18 19 19 3 4 2 9 11 17 10 6 7 7 7 5 6 8 11 13 13 15 15 15 21 17 20 12 13 12 9 4 8 10
8 10 12 14 16 18 20 21 23 24 23 18 16 16 6 1 4 1 7 12 6 6 4 7 6 7 7 8 10 9 8 12 13 15 15 15 20 19 22 14 13 15 15 6 8
8 10 13 15 17 19 20 21 22 22 19 13 13 14 3 2 3 16 11 8 7 8 11 8 7 9 9 7 8 7 17 17 16 17 14 16 17 9 22 9 13 15 16 12 8
8 11 14 16 19 21 22 22 22 21 16 12 11 4 3 2 4 10 8 5 5 3 5 6 9 6 9 10 8 8 12 14 16 11 14 16 21 20 17 13 17 19 18 21 12
9 12 14 18 21 23 24 23 22 21 15 12 8 3 1 1 4 7 7 6 7 10 5 8 7 6 5 9 10 8 7 7 11 10 16 10 24 22 17 19 24 22 18 18 24
9 12 15 19 23 24 25 26 24 18 11 13 3 1 2 1 5 7 6 3 7 8 5 10 4 5 5 6 8 5 8 9 21 14 16 14 25 14 17 24 23 22 21 20 19
9 12 14 19 24 26 26 27 8 2 4 5 8 3 2 2 5 8 5 6 7 9 8 6 2 2 3 1 10 8 8 13 17 18 13 16 20 15 17 14 24 22 16 18 19
9 12 14 18 23 26 13 4 3 2 4 1 2 3 3 6 9 0 7 8 8 7 6 8 6 7 14 10 17 17 18 22 24 23 19 22 23 22 17 17 14 17 14 11 13
8 12 14 18 22 26 8 2 4 3 4 5 2 4 5 4 3 6 7 6 6 7 10 6 6 8 19 17 16 17 20 23 25 19 16 19 22 23 16 22 19 17 18 15 9
7 11 15 18 22 8 5 3 3 7 1 6 5 2 2 3 2 3 3 3 6 6 9 6 11 12 16 18 20 22 20 18 24 26 23 21 25 21 19 16 18 22 19 15 10
7 11 14 20 5 4 2 5 7 3 2 8 5 3 4 4 1 3 3 4 2 8 9 3 6 13 15 19 19 24 17 21 23 22 17 17 18 20 15 18 20 21 21 19 15
6 10 13 8 5 2 2 6 2 3 1 9 5 5 4 1 2 3 4 2 8 13 4 5 13 16 17 15 19 15 19 22 22 19 20 22 11 24 11 18 20 22 19 21 20
6 9 13 1 2 3 8 6 3 3 4 2 5 4 2 5 3 1 4 8 7 3 9 11 7 13 16 18 16 21 16 19 18 13 16 17 15 22 15 19 18 23 17 21 25
6 10 8 7 0 4 4 1 3 3 5 6 3 4 3 6 2 3 4 7 4 6 7 15 6 14 13 22 23 11 10 6 6 7 14 12 16 15 11 13 19 12 11 2 7
7 10 6 5 6 6 2 2 2 5 5 4 2 3 4 2 2 5 6 4 4 5 5 8 20 8 16 19 16 22 13 10 7 4 12 13 17 16 14 22 22 14 6 7 14
7 2 3 3 1 3 3 2 3 3 4 3 3 4 2 6 4 6 6 1 2 2 3 6 12 18 14 16 10 8 6 14 12 13 10 8 21 17 23 24 18 13 14 11 9
1 3 1 6 3 2 3 3 3 5 5 3 1 3 2 5 4 6 3 3 5 4 2 5 19 10 11 18 4 13 11 5 2 4 5 9 16 15 13 17 23 13 11 16 16
0 1 2 2 2 3 3 4 6 8 4 1 2 3 4 4 2 3 4 8 5 5 7 4 2 16 9 6 20 10 8 6 5 7 3 5 9 3 8 18 17 20 18 17 15
2 2 2 1 2 3 3 3 2 10 4 1 1 1 4 3 2 4 4 4 3 2 6 0 4 8 23 22 11 3 13 6 5 4 7 5 12 4 10 11 13 12 16 16 18
2 3 3 2 3 2 4 4 2 2 5 5 4 4 3 2 4 3 6 8 10 6 1 3 4 7 15 3 1 16 21 18 13 7 6 7 8 14 14 14 16 12 17 18 20
2 3 1 1 2 2 2 4 5 2 4 4 1 5 4 5 6 5 9 5 10 10 4 2 4 2 8 16 18 23 28 24 12 5 6 13 12 19 14 12 15 19 24 12 16
1 1 4 2 2 3 3 2 4 4 3 2 2 7 6 4 5 6 8 10 14 13 7 4 3 11 16 19 22 23 18 20 19 15 8 9 9 13 10 13 12 15 17 6 19
2 1 4 1 2 6 3 2 6 5 6 4 3 6 6 4 4 6 8 7 5 10 3 7 5 11 21 17 19 19 9 18 14 19 13 15 4 12 8 10 15 18 22 25 11
2 2 3 3 2 4 4 4 4 2 6 5 4 5 6 6 6 6 6 10 13 16 21 5 4 6 16 16 20 2 10 16 5 20 17 15 15 2 11 12 13 15 20 16 15
Wind_Direction
345 338 335 336 332 331 330 330 327 326 325 324 323 324 326 328 320 251 63 300 295 319 323 273 292 246 225 250 262 306 257 257 254 269 281 290 300 324 284 199 271 270 124 143 130
337 335 332 332 328 331 330 330 329 326 326 326 324 324 332 334 305 43 249 290 301 335 344 328 327 318 232 220 233 184 248 243 254 277 279 283 299 322 323 297 295 317 109 139 138
324 327 326 324 326 330 332 331 326 323 326 327 327 325 323 322 313 92 247 278 295 299 267 287 277 291 280 259 248 239 246 259 262 270 278 286 293 302 325 303 247 210 182 165 160
316 325 326 324 328 330 329 325 322 322 323 323 327 322 314 236 86 178 250 269 273 281 295 290 330 314 298 272 262 259 270 264 269 271 274 275 286 289 290 273 290 291 203 250 185
314 321 320 323 324 324 324 321 317 316 316 318 320 320 322 245 53 187 324 340 282 295 267 318 303 306 295 310 325 291 275 270 275 273 275 281 282 276 278 281 293 299 308 264 255
310 317 316 321 319 320 317 314 310 311 310 311 320 316 260 99 252 27 5 338 341 350 344 341 337 338 305 283 278 287 292 288 288 280 278 281 286 311 285 292 285 286 287 282 269
308 313 315 320 316 315 313 308 306 308 305 310 329 296 299 103 33 2 343 293 306 297 288 290 306 329 323 318 282 312 313 308 282 273 265 270 277 265 280 299 275 268 278 282 261
307 313 317 317 314 312 309 306 302 303 310 311 328 315 5 36 332 351 302 311 330 303 235 264 230 271 241 263 288 309 288 285 277 264 268 250 255 254 272 267 268 266 247 255 273
306 312 317 316 312 312 313 309 297 292 287 299 328 150 175 122 347 304 289 278 303 292 276 267 157 208 287 288 306 218 263 244 279 253 260 256 262 262 240 249 252 251 248 244 242
300 311 317 316 313 318 320 306 291 299 249 264 262 327 335 355 318 281 294 359 323 341 336 21 134 211 311 37 268 262 262 277 276 285 278 285 280 279 273 286 249 247 244 248 246
300 312 317 317 318 320 335 345 7 340 243 253 5 272 85 332 285 4 19 322 5 1 10 336 349 301 289 302 303 305 307 289 272 274 267 270 276 280 282 278 275 290 248 239 247
299 311 318 320 322 323 316 54 81 188 337 205 172 222 200 226 287 341 49 36 7 2 332 353 298 303 317 319 314 308 304 295 302 303 298 290 272 260 260 272 265 265 282 276 252
303 312 319 323 323 323 85 85 60 22 226 196 208 182 235 239 317 316 84 351 347 309 310 301 297 333 325 310 307 301 298 303 297 302 298 292 283 275 254 256 263 271 267 261 243
299 311 320 328 329 316 60 19 33 42 107 163 209 180 211 255 194 349 97 37 296 310 298 288 310 321 320 313 309 300 315 313 308 308 283 300 278 267 249 250 259 260 263 261 251
286 307 318 337 295 47 34 12 278 58 228 181 120 182 254 257 179 60 17 312 288 276 268 272 336 332 313 300 305 319 320 305 292 289 294 278 271 262 242 242 244 257 254 260 256
289 307 330 318 190 341 13 324 43 63 232 155 134 162 341 314 95 88 359 295 274 6 340 320 315 295 305 308 324 315 314 297 276 269 263 263 265 266 247 245 252 253 265 265 251
290 307 311 327 3 20 343 356 65 183 167 144 132 79 328 273 93 58 322 18 11 359 331 313 299 311 298 337 310 307 321 299 265 245 256 269 270 258 262 224 241 269 282 254 110
296 308 275 293 13 334 12 69 139 154 99 43 66 342 247 88 60 349 16 5 46 14 329 334 320 339 331 307 317 315 271 263 287 256 269 259 265 268 251 274 267 280 133 6 108
309 263 254 189 5 33 84 93 228 45 105 73 326 221 239 92 75 33 351 72 290 353 167 307 287 314 288 339 338 327 271 290 268 264 278 285 296 296 257 260 263 228 144 102 59
305 262 117 172 121 73 86 241 131 78 104 127 250 62 357 22 4 18 310 248 281 281 240 265 300 311 315 311 239 342 318 322 169 271 264 265 279 260 295 280 249 196 151 114 103
272 192 224 129 82 60 171 226 121 101 73 130 349 20 16 352 16 327 259 301 265 7 355 316 163 302 294 306 303 332 344 303 296 260 253 294 262 294 270 319 323 174 132 121 105
256 144 250 72 97 212 187 235 26 126 122 33 110 272 232 312 324 283 295 301 74 340 330 234 234 292 292 293 295 204 324 274 304 347 310 261 271 45 304 331 333 137 123 116 95
224 125 290 56 134 261 262 117 63 188 170 183 203 198 52 19 313 288 310 311 323 4 94 282 313 311 318 310 165 320 316 314 330 257 236 259 264 343 2 45 28 60 100 95 90
292 124 83 18 306 328 309 182 155 104 2 19 1 351 342 277 266 283 310 310 339 349 270 165 186 216 282 276 290 302 311 314 325 270 279 256 341 6 1 51 47 38 28 99 103
320 206 169 174 274 249 301 229 227 153 178 17 245 223 237 254 284 292 326 331 335 307 345 358 282 288 280 281 289 292 326 338 298 272 267 317 334 7 12 31 71 62 31 302 119
119 55 359 44 196 172 243 183 272 217 158 181 223 274 319 340 354 332 338 329 286 304 309 299 265 302 294 298 293 312 314 336 5 21 356 344 348 343 59 41 61 66 52 27 64
293 335 84 317 228 139 207 181 291 20 19 45 26 347 333 329 338 303 280 282 269 270 277 258 252 286 288 305 314 4 350 353 334 33 20 357 327 74 73 76 83 75 82 64 33